DELTA 1 DEB, 7839

Orbit data source: Space-Track

DELTA 1 DEB, 7839 is space debris in SSO originally from a launch on Sun, 23 Jul 1972 UTC launched from the Air Force Western Test Range (AFWTR). Debris objects in space refer to the collection of defunct objects orbiting the Earth. Examples of debris include non-operational satellites, rocket bodies, and fragments generated from explosions, collisions, or faulty payload assembly.

Loading next visibility...
Identifier
7839, 1972-058K
Orbit
SSO
Country
Flag of USUS
Related business
Manufacturer
Unknown
Mission
Spacecraft
Bus & Motor
Unknown
Mass
Unknown
Launch date (UTC)
1972-07-23 (54 years ago)
Launch vehicle
Unknown
Launch site
Air Force Western Test Range (AFWTR)
Object type
Payload
Rocket body
Debris
Shape & HBR
Unknown shape, 0.2 m
Radar Cross Section
Medium (>0.1 m² and <1 m²)

Expand to show TLE details & history
Last TLE update: 14 hours ago

TLE from 14 hours ago
0 DELTA 1 DEB
1  7839U 72058K   26150.07192551  .00003031  00000-0  54169-3 0  9998
2  7839  98.7186   8.9779 0158837 103.1523 258.7453 14.59803618642398
Epoch: 2026-05-30T01:43Z
TLE epoch observation values (Epoch: 2026-05-30T01:43:34.364Z)
Latitude
Longitude
95.49151°
Altitude
720.414 km
Speed
7.483 km/s
True Right ascension
00h 35m 54s
True Declination
0° 00' 00"
Sunlit
Object was in daylight at epoch
Visualization orbit readout
Latitude
Unknown
Longitude
Unknown
Altitude
Unknown
Speed
Unknown
Apparent Right ascension
Unknown
Apparent Declination
Unknown
Sunlit
N/A
Visualization observer readout
Local Sidereal Time
01:02:59
Azimuth
Unknown
Elevation
Unknown
Doppler factor
Unknown
Orbital elements
Apogee altitude
803.196 km
Perigee altitude
578.63 km
Semi-major axis
7,069.05 km
Eccentricity
0.01588
Inclination
98.7186°
RAAN
8.9779°
Arg. of periapsis
103.1523°
True anomaly
256.96734°
Mean anomaly
258.7453°
Eccentric anomaly
257.8556°
Mean motion
3.65175 °/min
Orbital period
98.58 mins
BSTAR
0.00054169
Loading maneuver chart data...
Computing Atmospheric mass density...
Loading historical data...
Loading historical data...
Loading historical data...
Loading historical data...
Loading historical data...
Loading historical data...
Loading historical data...

Documentation

Showing up to 5 results
|